カタログに戻る

USA 37

運用中軍事MEO
NORAD 19976·PAYLOAD·🇺🇸 United States

打ち上げ May 10, 1989 から Cape Canaveral Space Force Station

Loading…

次のパス (今後24時間)

TLE

最新Source: Mike McCants

元期: Sep 14, 2026, 19:08 UTC

1 19976U 89035A   26257.79779023  .00000000  00000-0  00000-0 0    06
2 19976   8.1698   7.2248 0919135 346.0149  11.6015  1.00270000 14834

AllMySatでUSA 37をリアルタイム追跡

Download on the App Store